Flag for Germany Weather past 2 weeks in Kamp-Lintfort, North Rhine-Westphalia, Germany

Now
57 °F

Overcast.


Feels Like: 57 °F
Forecast: 48 / 66 °F
Wind: 3 mph from Northeast

Location: Duesseldorf


UV Index: 3 (Moderate)

Visibility: 25 mi


Pressure: 29.68 "Hg

Humidity: 66%

Dew point: 46 °F

Location of Kamp-LintfortLocation

Historic Weather in Kamp-Lintfort

°F

Kamp-Lintfort temperature yesterday

Maximum temperature yesterday: 72 °F (at 2:00 PM)
Minimum temperature yesterday: 53 °F (at 7:00 AM)
Average temperature yesterday: 61 °F

Past Weeks' High & Low Weather Summary

 TemperatureHumidityPressure
High72 °F (Apr 20, 2:00 PM)97% (Apr 12, 8:00 AM)30.47 "Hg (Apr 12, 8:00 AM)
Low30 °F (Apr 16, 5:00 AM)26% (Apr 17, 5:00 PM)29.67 "Hg (Apr 20, 6:00 PM)
Average52 °F66%30.08 "Hg
* Reported Apr 6 12:00 Noon — Apr 21 11:00 AM, Kamp-Lintfort, Weather by CustomWeather, © 2014

Note: Actual official high and low records may vary slightly from our data, if they occured in-between our weather recording intervals... More about our weather records

Advertising

Historic Weather Conditions — Data for Previous 24 hours

 ConditionsComfort  
Time TempWeatherWind HumidityBarometerVisibility
11:00 AM
Apr 21
57 °FOvercast.3 mph66%29.68 "Hg25 mi
10:00 AM53 °FOvercast.2 mph78%29.69 "Hg25 mi
9:00 AM51 °FOvercast.1 mph76%29.70 "Hg22 mi
8:00 AM46 °FOvercast.1 mph87%29.70 "Hg25 mi
7:00 AM44 °FPartly sunny.1 mph89%29.70 "Hg25 mi
6:00 AM44 °FPassing clouds.1 mph90%29.69 "Hg25 mi
4:00 AM47 °FPassing clouds.2 mph84%29.71 "Hg25 mi
3:00 AM50 °FPassing clouds.1 mph74%29.72 "Hg25 mi
2:00 AM51 °FPassing clouds.3 mph70%29.74 "Hg22 mi
1:00 AM54 °FClear.5 mph62%29.74 "Hg25 mi
12:00 AM54 °FClear.3 mph64%29.74 "Hg25 mi
11:00 PM
Apr 20
55 °FPassing clouds.2 mph59%29.73 "Hg25 mi
10:00 PM57 °FPassing clouds.3 mph53%29.72 "Hg28 mi
9:00 PM60 °FPassing clouds.3 mph48%29.71 "Hg28 mi
8:00 PM64 °FPassing clouds.3 mph42%29.69 "Hg28 mi
7:00 PM69 °FPassing clouds.7 mph32%29.67 "Hg28 mi
6:00 PM69 °FScattered clouds.3 mph32%29.67 "Hg28 mi
4:00 PM72 °FScattered clouds.6 mph31%29.68 "Hg28 mi
3:00 PM69 °FScattered clouds.7 mph37%29.69 "Hg25 mi
2:00 PM72 °FScattered clouds.8 mph35%29.70 "Hg19 mi
1:00 PM69 °FPassing clouds.8 mph47%29.72 "Hg14 mi
12:00 PM66 °FPassing clouds.8 mph52%29.74 "Hg14 mi
11:00 AM63 °FPassing clouds.7 mph59%29.76 "Hg12 mi
Weather by CustomWeather, © 2014

See weather overview